DT_LEITURA;HR_LEITURA;MED-PressaoAtm[hPa];VAL-TempExt[oC];VAL-UmidExt[%UR];VAL-TempInt[oC];VAL-UmidInt[%UR];Dir-Vento[grau];Vel-Vento[m/s];Precipitação[mm/h]
10/08/2026;00:00:00;1014,1;-33,7;0;28,6;73;271;0,5;0,0
10/08/2026;00:05:00;1014,1;-33,8;0;28,5;73;289;0,4;0,0
10/08/2026;00:10:00;1014,1;-33,9;0;28,5;73;346;0,5;0,0
10/08/2026;00:15:00;1014,0;-34,0;0;28,4;74;349;0,5;0,0
10/08/2026;00:20:00;1014,0;-34,1;0;28,4;74;121;0,4;0,0
10/08/2026;00:25:00;1014,0;-34,1;0;28,3;74;305;0,4;0,0
10/08/2026;00:30:00;1014,0;-34,2;0;28,3;74;360;0,4;0,0
10/08/2026;00:35:00;1014,0;-34,3;0;28,3;74;174;0,3;0,0
10/08/2026;00:40:00;1014,0;-34,3;0;28,2;74;357;0,3;0,0
10/08/2026;00:45:00;1014,0;-34,4;0;28,2;74;30;0,3;0,0
10/08/2026;00:50:00;1014,0;-34,4;0;28,2;74;350;0,4;0,0
10/08/2026;00:55:00;1014,0;-34,5;0;28,1;74;302;0,4;0,0
10/08/2026;01:00:00;1014,0;-34,5;0;28,1;74;255;0,3;0,0
10/08/2026;01:05:00;1013,9;-34,6;0;28,1;75;277;0,3;0,0
10/08/2026;01:10:00;1013,9;-34,6;0;28,1;75;312;0,3;0,0
10/08/2026;01:15:00;1013,8;-34,7;0;28,0;75;329;0,5;0,0
10/08/2026;01:20:00;1013,7;-34,7;0;28,0;75;4;0,5;0,0
10/08/2026;01:25:00;1013,6;-34,8;0;27,9;75;81;0,3;0,0
10/08/2026;01:30:00;1013,5;-34,8;0;27,9;75;250;0,4;0,0
10/08/2026;01:35:00;1013,5;-34,8;0;27,8;75;319;0,5;0,0
10/08/2026;01:40:00;1013,4;-34,9;0;27,8;76;336;0,6;0,0
10/08/2026;01:45:00;1013,3;-34,9;0;27,7;76;312;0,4;0,0
10/08/2026;01:50:00;1013,2;-35,0;0;27,7;76;353;0,5;0,0
10/08/2026;01:55:00;1013,1;-35,0;0;27,6;76;332;0,5;0,0
10/08/2026;02:00:00;1013,0;-35,0;0;27,6;76;331;0,5;0,0
10/08/2026;02:05:00;1012,9;-35,1;0;27,5;77;238;0,5;0,0
10/08/2026;02:10:00;1012,8;-35,1;0;27,5;77;299;0,5;0,0
10/08/2026;02:15:00;1012,7;-35,2;0;27,4;77;295;0,6;0,0
10/08/2026;02:20:00;1012,7;-35,2;0;27,4;77;196;0,6;0,0
10/08/2026;02:25:00;1012,6;-35,3;0;27,3;78;92;0,5;0,0
10/08/2026;02:30:00;1012,6;-35,3;0;27,3;78;239;0,5;0,0
10/08/2026;02:35:00;1012,6;-35,3;0;27,3;78;213;0,5;0,0
10/08/2026;02:40:00;1012,5;-35,4;0;27,2;78;226;0,4;0,0
10/08/2026;02:45:00;1012,5;-35,4;0;27,2;78;7;0,6;0,0
10/08/2026;02:50:00;1012,4;-35,4;0;27,1;78;359;0,3;0,0
10/08/2026;02:55:00;1012,4;-35,4;0;27,1;78;177;0,4;0,0
10/08/2026;03:00:00;1012,3;-35,5;0;27,1;78;182;0,3;0,0
10/08/2026;03:05:00;1012,3;-35,5;0;27,0;78;323;0,4;0,0
10/08/2026;03:10:00;1012,3;-35,5;0;27,0;78;40;0,4;0,0
10/08/2026;03:15:00;1012,3;-35,5;0;26,9;78;355;0,5;0,0
10/08/2026;03:20:00;1012,3;-35,5;0;26,9;79;316;0,4;0,0
10/08/2026;03:25:00;1012,3;-35,6;0;26,9;79;259;0,3;0,0
10/08/2026;03:30:00;1012,3;-35,6;0;26,8;79;330;0,3;0,0
10/08/2026;03:35:00;1012,3;-35,6;0;26,8;79;17;0,5;0,0
10/08/2026;03:40:00;1012,3;-35,6;0;26,8;79;318;0,6;0,0
10/08/2026;03:45:00;1012,2;-35,6;0;26,7;79;21;0,5;0,0
10/08/2026;03:50:00;1012,1;-35,7;0;26,7;80;96;0,4;0,0
10/08/2026;03:55:00;1012,2;-35,7;0;26,7;80;20;0,5;0,0
10/08/2026;04:00:00;1012,1;-35,7;0;26,6;80;4;0,5;0,0
10/08/2026;04:05:00;1012,1;-35,7;0;26,6;80;82;0,5;0,0
10/08/2026;04:10:00;1012,1;-35,7;0;26,6;80;91;0,4;0,0
10/08/2026;04:15:00;1012,2;-35,7;0;26,6;80;111;0,3;0,0
10/08/2026;04:20:00;1012,2;-35,7;0;26,5;80;310;0,4;0,0
10/08/2026;04:25:00;1012,2;-35,7;0;26,5;80;298;0,4;0,0
10/08/2026;04:30:00;1012,2;-35,7;0;26,5;80;322;0,4;0,0
10/08/2026;04:35:00;1012,3;-35,8;0;26,4;80;123;0,3;0,0
10/08/2026;04:40:00;1012,4;-35,8;0;26,4;80;96;0,4;0,0
10/08/2026;04:45:00;1012,5;-35,8;0;26,4;80;91;0,3;0,0
10/08/2026;04:50:00;1012,5;-35,8;0;26,4;81;23;0,4;0,0
10/08/2026;04:55:00;1012,6;-35,8;0;26,3;81;346;0,3;0,0
10/08/2026;05:00:00;1012,7;-35,8;0;26,3;81;352;0,5;0,0
10/08/2026;05:05:00;1012,7;-35,8;0;26,3;81;34;0,5;0,0
10/08/2026;05:10:00;1012,7;-35,8;0;26,2;81;329;0,4;0,0
10/08/2026;05:15:00;1012,7;-35,8;0;26,2;81;46;0,5;0,0
10/08/2026;05:20:00;1012,7;-35,9;0;26,2;81;66;0,4;0,0
10/08/2026;05:25:00;1012,8;-35,9;0;26,1;81;17;0,5;0,0
10/08/2026;05:30:00;1012,9;-35,9;0;26,1;81;245;0,5;0,0
10/08/2026;05:35:00;1013,0;-35,9;0;26,1;82;87;0,4;0,0
10/08/2026;05:40:00;1013,1;-35,9;0;26,1;82;17;0,6;0,0
10/08/2026;05:45:00;1013,2;-35,9;0;26,0;82;347;0,4;0,0
10/08/2026;05:50:00;1013,2;-35,9;0;26,0;82;359;0,6;0,0
10/08/2026;05:55:00;1013,3;-35,9;0;26,0;82;334;0,5;0,0
10/08/2026;06:00:00;1013,4;-35,9;0;26,0;82;349;0,5;0,0
10/08/2026;06:05:00;1013,5;-35,9;0;25,9;82;327;0,3;0,0
10/08/2026;06:10:00;1013,5;-35,9;0;25,9;82;344;0,5;0,0
10/08/2026;06:15:00;1013,6;-35,9;0;25,9;82;280;0,4;0,0
10/08/2026;06:20:00;1013,6;-35,9;0;25,9;82;347;0,5;0,0
10/08/2026;06:25:00;1013,6;-36,0;0;25,9;82;4;0,5;0,0
10/08/2026;06:30:00;1013,6;-36,0;0;25,9;82;352;0,5;0,0
10/08/2026;06:35:00;1013,6;-36,0;0;25,9;82;343;0,4;0,0
10/08/2026;06:40:00;1013,7;-35,9;0;25,9;82;338;0,6;0,0
10/08/2026;06:45:00;1013,8;-35,9;1;25,9;82;6;0,5;0,0
10/08/2026;06:50:00;1013,8;-36,0;1;25,8;82;358;0,5;0,0
10/08/2026;06:55:00;1013,9;-36,0;0;25,8;82;3;0,6;0,0
10/08/2026;07:00:00;1013,9;-36,0;0;25,8;83;355;0,5;0,0
10/08/2026;07:05:00;1014,0;-36,0;0;25,9;83;42;0,4;0,0
10/08/2026;07:10:00;1014,0;-36,0;0;25,9;82;32;0,2;0,0
10/08/2026;07:15:00;1014,1;-36,0;0;25,9;82;15;0,3;0,0
10/08/2026;07:20:00;1014,1;-36,0;0;26,0;82;36;0,4;0,0
10/08/2026;07:25:00;1014,1;-36,0;0;26,1;82;27;0,4;0,0
10/08/2026;07:30:00;1014,1;-36,0;0;26,1;82;74;0,4;0,0
10/08/2026;07:35:00;1014,2;-36,0;0;26,2;82;30;0,5;0,0
10/08/2026;07:40:00;1014,3;-36,0;0;26,3;81;359;0,4;0,0
10/08/2026;07:45:00;1014,4;-36,0;0;26,4;81;348;0,5;0,0
10/08/2026;07:50:00;1014,4;-36,0;0;26,4;81;9;0,3;0,0
10/08/2026;07:55:00;1014,4;-35,9;0;26,5;81;346;0,5;0,0
10/08/2026;08:00:00;1014,5;-35,9;0;26,6;80;351;0,5;0,0
10/08/2026;08:05:00;1014,5;-35,9;0;26,7;80;18;0,5;0,0
10/08/2026;08:10:00;1014,5;-35,9;0;26,8;80;14;0,6;0,0
10/08/2026;08:15:00;1014,6;-35,9;0;26,9;80;5;0,7;0,0
10/08/2026;08:20:00;1014,7;-35,9;0;27,0;80;354;0,4;0,0
10/08/2026;08:25:00;1014,7;-35,9;0;27,2;79;356;0,5;0,0
10/08/2026;08:30:00;1014,7;-35,9;0;27,3;79;20;0,5;0,0
10/08/2026;08:35:00;1014,8;-35,9;0;27,5;79;326;0,5;0,0
10/08/2026;08:40:00;1014,8;-35,9;0;27,6;78;347;0,4;0,0
10/08/2026;08:45:00;1014,8;-35,8;0;27,8;78;331;0,4;0,0
10/08/2026;08:50:00;1014,9;-35,8;0;28,0;77;223;0,6;0,0
10/08/2026;08:55:00;1014,9;-35,8;0;28,3;77;166;0,4;0,0
10/08/2026;09:00:00;1014,9;-35,8;0;28,4;76;354;0,4;0,0
10/08/2026;09:05:00;1014,9;-35,8;0;28,6;75;76;0,5;0,0
10/08/2026;09:10:00;1014,9;-35,7;0;28,8;75;352;0,5;0,0
10/08/2026;09:15:00;1014,9;-35,6;0;29,0;74;318;0,5;0,0
10/08/2026;09:20:00;1014,9;-35,6;0;29,2;73;334;0,5;0,0
10/08/2026;09:25:00;1014,8;-35,4;0;29,5;72;244;0,6;0,0
10/08/2026;09:30:00;1014,8;-35,0;0;30,0;71;318;0,6;0,0
10/08/2026;09:35:00;1014,8;-33,7;0;30,7;69;211;0,7;0,0
10/08/2026;09:40:00;1014,8;-30,2;0;31,5;65;283;0,6;0,0
10/08/2026;09:45:00;1014,8;-24,4;0;32,2;62;214;0,6;0,0
10/08/2026;09:50:00;1014,9;-19,9;0;32,7;60;278;0,6;0,0
10/08/2026;09:55:00;1015,0;-18,2;0;33,1;58;285;0,6;0,0
10/08/2026;10:00:00;1015,1;-17,5;0;33,5;56;123;0,6;0,0
10/08/2026;10:05:00;1015,1;-17,3;0;33,9;55;266;0,5;0,0
10/08/2026;10:10:00;1015,1;-17,2;0;34,3;54;191;0,7;0,0
10/08/2026;10:15:00;1015,1;-17,0;0;34,6;55;167;0,8;0,0
10/08/2026;10:20:00;1015,2;-16,9;0;35,0;52;154;0,5;0,0
10/08/2026;10:25:00;1015,2;-16,8;0;35,2;51;183;0,7;0,0
10/08/2026;10:30:00;1015,1;-16,7;1;35,3;52;175;0,6;0,0
10/08/2026;10:45:00;1015,2;-15,1;3;35,6;51;179;0,8;0,0
10/08/2026;10:50:00;1015,2;-16,3;2;35,4;51;140;0,8;0,0
10/08/2026;10:55:00;1015,2;-16,4;2;34,9;52;151;0,9;0,0
10/08/2026;11:00:00;1015,3;-16,4;2;34,6;54;145;1,0;0,0
10/08/2026;11:05:00;1015,3;-16,3;2;34,4;54;127;1,9;0,0
10/08/2026;11:10:00;1015,3;-16,2;2;34,3;53;128;2,1;0,0
10/08/2026;11:15:00;1015,3;-16,3;2;34,6;52;133;2,2;0,0
10/08/2026;11:20:00;1015,3;-16,2;1;35,0;51;128;1,9;0,0
10/08/2026;11:25:00;1015,4;-16,1;2;35,4;51;130;1,8;0,0
10/08/2026;11:30:00;1015,3;-16,3;2;35,6;50;128;2,1;0,0
10/08/2026;11:35:00;1015,3;-16,1;2;35,7;49;125;1,8;0,0
10/08/2026;11:40:00;1015,2;-16,2;2;35,7;50;138;1,5;0,0
10/08/2026;11:45:00;1015,1;-16,1;2;35,5;50;168;1,3;0,0
10/08/2026;11:50:00;1015,1;-15,9;2;35,3;50;163;1,2;0,0
10/08/2026;11:55:00;1015,1;-15,9;2;35,3;51;151;1,5;0,0
10/08/2026;12:00:00;1015,1;-16,0;2;35,3;51;174;1,1;0,0
10/08/2026;12:05:00;1015,0;-15,9;2;35,3;52;134;1,3;0,0
10/08/2026;12:10:00;1014,9;-15,9;2;35,4;51;141;1,4;0,0
10/08/2026;12:15:00;1014,9;-16,0;2;35,6;50;139;1,6;0,0
10/08/2026;12:20:00;1014,8;-15,8;2;35,8;49;154;1,1;0,0
10/08/2026;12:25:00;1014,7;-15,8;2;36,1;49;115;1,2;0,0
10/08/2026;12:30:00;1014,6;-15,8;2;36,4;48;186;1,2;0,0
10/08/2026;12:35:00;1014,5;-15,7;2;36,7;46;133;1,3;0,0
10/08/2026;12:40:00;1014,3;-15,7;2;37,0;46;147;1,2;0,0
10/08/2026;12:45:00;1014,3;-15,8;2;37,4;44;139;1,5;0,0
10/08/2026;12:50:00;1014,2;-15,6;2;37,6;44;136;1,4;0,0
10/08/2026;12:55:00;1014,0;-15,5;2;37,7;44;146;1,5;0,0
10/08/2026;13:00:00;1013,9;-15,7;2;37,9;43;160;1,6;0,0
10/08/2026;13:05:00;1013,9;-15,6;2;38,0;42;138;1,5;0,0
10/08/2026;13:10:00;1013,8;-15,5;2;38,1;43;137;1,5;0,0
10/08/2026;13:15:00;1013,7;-15,7;2;38,2;42;141;1,3;0,0
10/08/2026;13:20:00;1013,6;-15,5;2;38,5;41;130;1,7;0,0
10/08/2026;13:25:00;1013,5;-15,4;2;38,6;40;123;1,7;0,0
10/08/2026;13:30:00;1013,4;-15,6;2;38,8;40;127;1,6;0,0
10/08/2026;13:35:00;1013,3;-15,4;2;38,9;41;126;1,3;0,0
10/08/2026;13:40:00;1013,2;-15,3;2;39,1;40;128;1,4;0,0
10/08/2026;13:45:00;1013,1;-15,4;2;39,3;39;139;1,2;0,0
10/08/2026;13:50:00;1013,0;-15,2;2;39,5;40;135;1,3;0,0
10/08/2026;13:55:00;1012,9;-15,2;3;39,7;39;128;1,8;0,0
10/08/2026;14:00:00;1012,8;-15,3;3;39,8;38;130;1,4;0,0
10/08/2026;14:05:00;1012,8;-15,2;3;39,8;37;134;1,6;0,0
10/08/2026;14:10:00;1012,8;-15,2;3;39,7;38;136;1,4;0,0
10/08/2026;14:15:00;1012,7;-15,3;3;39,8;38;147;1,2;0,0
10/08/2026;14:20:00;1012,7;-15,2;3;40,0;38;135;1,6;0,0
10/08/2026;14:25:00;1012,7;-15,2;3;40,2;37;129;1,4;0,0
10/08/2026;14:30:00;1012,6;-15,3;3;40,3;37;132;1,6;0,0
10/08/2026;14:35:00;1012,6;-15,2;3;40,3;36;128;1,4;0,0
10/08/2026;14:40:00;1012,6;-15,1;3;40,4;36;131;1,4;0,0
10/08/2026;14:45:00;1012,5;-15,2;3;40,5;36;134;1,5;0,0
10/08/2026;14:50:00;1012,4;-15,1;3;40,6;36;122;1,7;0,0
10/08/2026;14:55:00;1012,3;-15,1;3;40,6;35;131;1,4;0,0
10/08/2026;15:00:00;1012,2;-15,2;3;40,7;35;127;1,2;0,0
10/08/2026;15:05:00;1012,1;-15,1;3;40,8;35;139;1,5;0,0
10/08/2026;15:10:00;1012,1;-15,1;3;40,9;35;129;1,4;0,0
10/08/2026;15:15:00;1012,0;-15,1;3;40,9;35;130;1,3;0,0
10/08/2026;15:20:00;1012,0;-15,0;3;41,0;35;134;1,7;0,0
10/08/2026;15:25:00;1012,0;-15,0;3;41,0;35;134;1,5;0,0
10/08/2026;15:30:00;1012,0;-15,2;3;41,1;36;141;1,0;0,0
10/08/2026;15:35:00;1012,0;-15,0;3;41,2;36;137;1,3;0,0
10/08/2026;15:40:00;1011,8;-15,0;4;41,2;36;152;1,1;0,0
10/08/2026;15:45:00;1011,8;-15,1;4;41,2;36;134;1,5;0,0
10/08/2026;15:50:00;1011,8;-15,0;4;41,2;35;135;1,4;0,0
10/08/2026;15:55:00;1011,8;-15,0;4;41,0;35;133;1,7;0,0
10/08/2026;16:00:00;1011,7;-15,2;4;40,9;36;138;1,4;0,0
10/08/2026;16:05:00;1011,7;-15,1;4;40,7;36;136;1,7;0,0
10/08/2026;16:10:00;1011,7;-15,1;4;40,5;37;134;1,4;0,0
10/08/2026;16:15:00;1011,6;-15,2;4;40,3;36;147;1,4;0,0
10/08/2026;16:20:00;1011,5;-15,2;4;40,0;37;140;1,6;0,0
10/08/2026;16:25:00;1011,5;-15,2;4;39,6;38;136;1,5;0,0
10/08/2026;16:30:00;1011,6;-15,4;4;38,8;39;125;1,8;0,0
10/08/2026;16:35:00;1011,5;-15,3;4;38,0;41;135;1,3;0,0
10/08/2026;16:40:00;1011,5;-15,3;4;37,5;43;133;1,5;0,0
10/08/2026;16:45:00;1011,5;-15,5;4;37,1;44;132;1,5;0,0
10/08/2026;16:50:00;1011,5;-15,4;4;36,7;46;131;1,6;0,0
10/08/2026;16:55:00;1011,4;-15,4;4;36,5;47;126;1,3;0,0
10/08/2026;17:00:00;1011,4;-15,6;4;36,3;48;131;1,4;0,0
10/08/2026;17:05:00;1011,6;-15,5;4;36,0;48;126;1,3;0,0
10/08/2026;17:10:00;1011,6;-15,6;4;35,7;48;129;1,4;0,0
10/08/2026;17:15:00;1011,6;-15,7;4;35,4;48;124;1,5;0,0
10/08/2026;17:20:00;1011,6;-15,7;4;35,1;49;128;1,6;0,0
10/08/2026;17:25:00;1011,7;-15,7;4;34,8;51;124;1,7;0,0
10/08/2026;17:30:00;1011,7;-15,9;4;34,5;52;121;1,7;0,0
10/08/2026;17:35:00;1011,7;-15,8;4;34,3;53;118;1,3;0,0
10/08/2026;17:40:00;1011,7;-15,9;4;34,2;54;130;1,4;0,0
10/08/2026;17:45:00;1011,8;-16,1;4;34,0;54;125;1,4;0,0
10/08/2026;17:50:00;1011,8;-16,0;4;33,9;54;133;1,4;0,0
10/08/2026;17:55:00;1012,0;-16,0;4;33,9;55;135;1,5;0,0
10/08/2026;18:00:00;1012,1;-16,1;4;33,7;55;122;1,6;0,0
10/08/2026;18:05:00;1012,2;-16,1;4;33,5;56;136;1,6;0,0
10/08/2026;18:10:00;1012,2;-16,2;4;33,3;57;118;1,6;0,0
10/08/2026;18:15:00;1012,2;-16,3;4;33,2;57;125;1,7;0,0
10/08/2026;18:20:00;1012,3;-16,3;4;33,0;58;129;1,5;0,0
10/08/2026;18:25:00;1012,2;-16,4;4;32,9;59;125;1,6;0,0
10/08/2026;18:30:00;1012,3;-16,7;4;32,8;60;125;1,5;0,0
10/08/2026;18:35:00;1012,5;-16,5;4;32,6;61;120;1,6;0,0
10/08/2026;18:40:00;1012,5;-16,6;4;32,5;61;121;1,7;0,0
10/08/2026;18:45:00;1012,5;-16,9;4;32,3;62;126;1,3;0,0
10/08/2026;18:50:00;1012,5;-16,9;4;32,2;62;124;1,5;0,0
10/08/2026;18:55:00;1012,5;-16,9;4;32,1;62;119;1,4;0,0
10/08/2026;19:00:00;1012,7;-17,4;4;32,0;62;118;1,5;0,0
10/08/2026;19:05:00;1012,9;-17,2;4;31,9;62;132;1,4;0,0
10/08/2026;19:10:00;1013,2;-17,3;4;31,9;62;125;1,2;0,0
10/08/2026;19:15:00;1014,0;-17,8;4;31,8;60;134;3,7;0,0
10/08/2026;19:20:00;1014,2;-18,5;4;31,3;55;129;4,2;0,0
10/08/2026;19:25:00;1014,2;-20,8;3;30,4;57;137;2,6;0,0
10/08/2026;19:30:00;1014,4;-22,6;3;29,7;59;137;2,0;0,0
10/08/2026;19:35:00;1014,5;-23,5;3;29,2;60;202;2,2;0,0
10/08/2026;19:40:00;1014,4;-24,4;3;28,8;61;235;1,7;0,0
10/08/2026;19:45:00;1014,5;-25,1;2;28,4;63;228;1,2;0,0
10/08/2026;19:50:00;1014,4;-25,5;2;28,2;64;226;1,1;0,0
10/08/2026;19:55:00;1014,3;-25,8;2;28,0;65;141;1,2;0,0
10/08/2026;20:00:00;1014,4;-26,1;2;27,7;67;171;0,8;0,0
10/08/2026;20:05:00;1014,2;-26,5;2;27,4;70;232;0,7;0,0
10/08/2026;20:10:00;1014,1;-27,1;2;27,1;71;202;0,9;0,0
10/08/2026;20:15:00;1014,2;-27,8;1;26,6;74;142;0,9;0,0
10/08/2026;20:20:00;1014,3;-28,8;2;26,4;76;158;0,6;0,0
10/08/2026;20:25:00;1014,5;-30,0;2;26,2;78;125;0,7;0,0
10/08/2026;20:30:00;1014,4;-31,1;2;26,2;79;137;0,9;0,0
10/08/2026;20:35:00;1014,4;-32,0;2;26,2;80;111;0,8;0,0
10/08/2026;20:40:00;1014,3;-32,5;1;26,2;80;81;0,5;0,0
10/08/2026;20:45:00;1014,3;-32,9;1;26,3;80;14;0,4;0,0
10/08/2026;20:50:00;1014,2;-33,1;1;26,3;80;121;0,8;0,0
10/08/2026;20:55:00;1014,2;-33,3;1;26,3;79;115;0,8;0,0
10/08/2026;21:00:00;1014,4;-33,4;1;26,3;79;90;0,4;0,0
10/08/2026;21:05:00;1014,4;-33,6;1;26,4;81;189;0,3;0,0
10/08/2026;21:10:00;1014,5;-33,8;1;26,5;80;248;0,5;0,0
10/08/2026;21:15:00;1014,6;-33,9;1;26,5;80;212;0,5;0,0
10/08/2026;21:20:00;1014,7;-34,0;1;26,6;80;155;0,5;0,0
10/08/2026;21:25:00;1014,7;-34,0;1;26,6;81;111;0,6;0,0
10/08/2026;21:30:00;1014,7;-34,1;1;26,6;80;142;0,5;0,0
10/08/2026;21:35:00;1014,7;-34,2;1;26,6;80;101;0,6;0,0
10/08/2026;21:40:00;1014,6;-34,3;1;26,6;80;133;0,8;0,0
10/08/2026;21:45:00;1014,6;-34,3;1;26,6;79;123;0,4;0,0
10/08/2026;21:50:00;1014,7;-34,4;1;26,6;79;121;0,5;0,0
10/08/2026;21:55:00;1014,7;-34,5;0;26,6;79;130;0,6;0,0
10/08/2026;22:00:00;1014,7;-34,6;0;26,6;79;123;0,5;0,0
10/08/2026;22:05:00;1014,8;-34,6;0;26,6;79;48;0,5;0,0
10/08/2026;22:10:00;1014,9;-34,7;0;26,6;78;49;0,4;0,0
10/08/2026;22:15:00;1014,9;-34,7;0;26,6;79;100;0,3;0,0
10/08/2026;22:20:00;1014,9;-34,7;0;26,6;79;88;0,3;0,0
10/08/2026;22:25:00;1015,1;-34,8;0;26,6;78;51;0,3;0,0
10/08/2026;22:30:00;1015,1;-34,8;0;26,6;78;37;0,3;0,0
10/08/2026;22:35:00;1015,1;-34,8;0;26,7;78;59;0,4;0,0
10/08/2026;22:40:00;1015,2;-34,8;0;26,7;78;85;0,2;0,0
10/08/2026;22:45:00;1015,2;-34,9;0;26,8;78;42;0,3;0,0
10/08/2026;22:50:00;1015,2;-34,9;0;26,8;78;18;0,4;0,0
10/08/2026;22:55:00;1015,2;-34,9;0;26,8;77;42;0,4;0,0
10/08/2026;23:00:00;1015,2;-34,9;0;26,9;78;98;0,2;0,0
10/08/2026;23:05:00;1015,3;-35,0;0;26,9;79;204;0,3;0,0
10/08/2026;23:10:00;1015,2;-35,0;0;27,0;78;9;0,5;0,0
10/08/2026;23:15:00;1015,2;-35,1;0;26,9;78;358;0,4;0,0
10/08/2026;23:20:00;1015,1;-35,0;0;26,9;78;6;0,7;0,0
10/08/2026;23:25:00;1015,0;-35,1;0;26,9;79;7;0,5;0,0
10/08/2026;23:30:00;1015,0;-35,1;0;26,8;79;4;0,8;0,0
10/08/2026;23:35:00;1014,9;-35,2;0;26,8;79;326;0,3;0,0
10/08/2026;23:40:00;1014,9;-35,2;0;26,8;79;54;0,3;0,0
10/08/2026;23:45:00;1014,9;-35,2;0;26,8;79;70;0,3;0,0
10/08/2026;23:50:00;1014,9;-35,3;0;26,9;79;7;0,5;0,0
10/08/2026;23:55:00;1014,9;-35,3;0;26,9;79;10;0,4;0,0
